Home > Weather > Andernach > Past weeks

Flag for Germany Past Weather in Andernach, Rhineland-Palatinate, Germany — Yesterday and Last 2 Weeks

Now
61 °F

Overcast.


Feels Like: 61 °F
Forecast: 56 / 68 °F
Wind: 3 mph from Northeast

Location: Nuerburg-Barweiler

Current Time: May 29, 2016 at 3:42:39 PM

Latest Report: May 29, 2016 at 3:00 PM


Visibility: 7 mi

Pressure: 29.70 "Hg

Humidity: 88%

Dew Point: 58 °F

Location of AndernachLocation

Past Weather in Andernach — Graph

°F

Andernach Temperature Yesterday

Maximum temperature yesterday: 69 °F (at 1:00 PM)
Minimum temperature yesterday: 50 °F (at 7:00 AM)
Average temperature yesterday: 58 °F

High & Low Weather Summary for the Past Weeks

 TemperatureHumidityPressure
High69 °F (May 21, 7:00 PM)100% (May 26, 6:00 AM)30.17 "Hg (May 26, 6:00 AM)
Low36 °F (May 15, 6:00 AM)41% (May 17, 1:00 PM)29.71 "Hg (May 19, 1:00 AM)
Average52 °F79%29.97 "Hg
* Reported May 14 1:00 PM — May 29 1:00 PM, Andernach, Weather by CustomWeather, © 2016

Note: Actual official high and low records may vary slightly from our data, if they occured in-between our weather recording intervals... More about our weather records

Advertising

Andernach Weather History for the Previous 24 Hours

Scroll right to see more
 ConditionsComfort  
Time TempWeatherWind HumidityBarometerVisibility
1:00 PM
Sun, May 29
58 °FLow clouds.2 mph96%29.71 "Hg6 mi
12:00 PM57 °FLow clouds.2 mph98%29.72 "Hg3 mi
10:00 AM56 °FLow clouds.1 mph99%29.73 "Hg1 mi
9:00 AM55 °FLight rain. Overcast.2 mph99%29.73 "Hg4 mi
7:00 AM53 °FLow clouds.1 mph100%29.75 "Hg1 mi
6:00 AM50 °FFog.1 mph100%29.76 "Hg0 mi
4:00 AM51 °FOvercast.2 mph100%29.79 "Hg1 mi
3:00 AM55 °FOvercast.2 mph93%29.79 "Hg9 mi
1:00 AM55 °FOvercast.5 mph94%29.83 "Hg8 mi
12:00 AM55 °FLow clouds.2 mph100%29.83 "Hg0 mi
10:00 PM
Sat, May 28
56 °FOvercast.2 mph97%29.85 "Hg7 mi
9:00 PM57 °FDrizzle. Overcast.2 mph97%29.86 "Hg6 mi
7:00 PM60 °FOvercast.2 mph92%29.86 "Hg6 mi
6:00 PM60 °FOvercast.2 mph87%29.85 "Hg13 mi
4:00 PM65 °FOvercast.6 mph74%29.85 "Hg25 mi
3:00 PM67 °FOvercast.3 mph69%29.85 "Hg25 mi
Weather by CustomWeather, © 2016

See weather overviewHow to use our weather pages